This is the latest recevied weather packets stored in our database for station/object G1OCN-WX. If no packets are shown the sender has not sent any weather packets the latest 1 day(s).
| Time | Temp. | Humidity | Pressure | Rain* | Wind** | Luminosity | Snow |
|---|---|---|---|---|---|---|---|
| 1777976792 | 13.89° C | 69% | 1013.4 hPa | 0 mm | 3.58 m/s, 51° | - | - |
| 1777976732 | 13.89° C | 68% | 1013.4 hPa | 0 mm | 4.02 m/s, 52° | - | - |
| 1777976672 | 13.89° C | 69% | 1013.4 hPa | 0 mm | 5.36 m/s, 49° | - | - |
| 1777976612 | 13.89° C | 69% | 1013.4 hPa | 0 mm | 4.47 m/s, 41° | - | - |
| 1777976552 | 13.89° C | 69% | 1013.5 hPa | 0 mm | 3.58 m/s, 47° | - | - |
| 1777976492 | 13.89° C | 70% | 1013.5 hPa | 0 mm | 4.47 m/s, 37° | - | - |
| 1777976432 | 13.89° C | 70% | 1013.4 hPa | 0 mm | 3.58 m/s, 54° | - | - |
| 1777976372 | 13.89° C | 69% | 1013.5 hPa | 0 mm | 4.02 m/s, 47° | - | - |
| 1777976311 | 13.89° C | 70% | 1013.5 hPa | 0 mm | 4.02 m/s, 56° | - | - |
| 1777976251 | 13.89° C | 69% | 1013.4 hPa | 0 mm | 4.02 m/s, 56° | - | - |
| 1777976191 | 13.89° C | 69% | 1013.5 hPa | 0 mm | 4.02 m/s, 46° | - | - |
| 1777976131 | 13.89° C | 70% | 1013.4 hPa | 0 mm | 3.58 m/s, 41° | - | - |
| 1777976071 | 13.89° C | 69% | 1013.4 hPa | 0 mm | 4.47 m/s, 51° | - | - |
| 1777976011 | 13.89° C | 69% | 1013.4 hPa | 0 mm | 5.36 m/s, 44° | - | - |
| 1777975951 | 13.89° C | 70% | 1013.5 hPa | 0 mm | 5.36 m/s, 51° | - | - |
| 1777975891 | 13.89° C | 70% | 1013.5 hPa | 0 mm | 4.47 m/s, 54° | - | - |
| 1777975831 | 13.89° C | 69% | 1013.5 hPa | 0 mm | 5.36 m/s, 49° | - | - |
| 1777975771 | 13.89° C | 70% | 1013.5 hPa | 0 mm | 5.81 m/s, 41° | - | - |
| 1777975711 | 13.89° C | 70% | 1013.5 hPa | 0 mm | 5.36 m/s, 48° | - | - |
| 1777975651 | 13.89° C | 70% | 1013.4 hPa | 0 mm | 5.36 m/s, 54° | - | - |
| 1777975591 | 13.89° C | 70% | 1013.5 hPa | 0 mm | 4.47 m/s, 64° | - | - |
| 1777975531 | 13.89° C | 71% | 1013.5 hPa | 0 mm | 4.02 m/s, 65° | - | - |
| 1777975440 | 13.89° C | 72% | 1013.5 hPa | 0 mm | 3.13 m/s, 45° | - | - |
| 1777975380 | 13.89° C | 72% | 1013.5 hPa | 0 mm | 3.58 m/s, 59° | - | - |
| 1777975320 | 13.89° C | 71% | 1013.5 hPa | 0 mm | 3.13 m/s, 61° | - | - |
* Rain latest hour (hover to see other rain measurements)
** Current wind speed in m/s (hover to see current wind gust speed)